Miscellaneous Local Product
Issued by NWS North Platte, NE

Home | Current Version | Previous Version | Text Only | Print | Product List | Glossary On
Versions: 1 2 3 4 5 6 7 8 9 10 11 12 13 14 15 16 17 18 19 20 21 22 23 24 25 26 27 28 29 30 31 32 33 34 35 36 37 38 39 40 41 42 43 44 45 46 47 48 49 50
803
AXUS43 KLBF 201010
MISLBF


WESTERN AND NORTH CENTRAL NEBRASKA HOURLY WEATHER ROUNDUP
NATIONAL WEATHER SERVICE NORTH PLATTE NE
500 AM CDT SUN AUG 20 2017

NOTE: "FAIR" INDICATES FEW OR NO CLOUDS BELOW 12,000 FEET WITH NO
SIGNIFICANT WEATHER AND/OR OBSTRUCTIONS TO VISIBILITY.

NOTE: STATIONS NOT REPORTING VARIABLES SUCH AS SKY/WEATHER OR
PRESSURE ARE PROVIDED BY RAWS AND APRS NETWORKS AND ARE NOT UNDER
NATIONAL WEATHER SERVICE QUALITY CONTROL.

...OBSERVATIONS IN AND NEAR THE EASTERN PANHANDLE OF NEBRASKA...

CITY           SKY/WX    TMP DP  RH WIND       PRES   REMARKS
PINE RIDGE     CLEAR     59  49  69 E8        29.98R
GORDON         FAIR      62  53  71 NE13G20   29.97R
CHADRON        CLEAR     52  46  80 W5        29.98R
ALLIANCE       CLEAR     56  47  71 N7        29.96R
SIDNEY         CLEAR     54  50  86 W3        29.98S
$$

...OBSERVATIONS IN NORTHERN NEBRASKA AND FAR SOUTHERN SOUTH DAKOTA...

CITY           SKY/WX    TMP DP  RH WIND       PRES   REMARKS
WINNER         LGT RAIN  66  65  96 CALM      29.91S VSB 1/4
VALENTINE      CLEAR     70  62  76 N12       29.92R
THEDFORD       CLEAR     58  56  94 CALM      29.89S
AINSWORTH      CLEAR     63  59  89 N20G26    29.92R
O`NEILL        CLEAR     63  59  87 SW6       29.88S
ORD            CLEAR     62  57  83 N3        29.87
BROKEN BOW     CLEAR     67  61  81 S3        29.87S
VALENTINE NWR    N/A     64  58  80 S6          N/A
HALSEY           N/A     62  59  89 CALM        N/A
BUTTE            N/A     64  61  89 NW6         N/A
CHAMBERS         N/A     64  58  80 S3          N/A
EWING            N/A     62  58  86 CALM        N/A
$$

...OBSERVATIONS IN SOUTHWEST NEBRASKA AND FAR NORTHEAST COLORADO...

CITY           SKY/WX    TMP DP  RH WIND       PRES   REMARKS
HOLYOKE        FAIR      61  55  82 CALM      29.93R
IMPERIAL       CLEAR     61  57  87 SW9       29.90R
OGALLALA       CLEAR     59  57  94 CALM      29.90R
NORTH PLATTE   CLEAR     64  62  93 E8        29.87R
MCCOOK         CLEAR     67  59  75 SW8       29.86S
LEXINGTON      CLEAR     65  62  89 SE6       29.87F
STAPLETON        N/A     60  57  90 CALM        N/A
GOTHENBURG       N/A     66  60  82 SE5         N/A
CALLAWAY         N/A     64  61  91 SE5         N/A
$$

...OBSERVATIONS IN CENTRAL LINCOLN COUNTY AREA...

CITY           SKY/WX    TMP DP  RH WIND       PRES   REMARKS
N.P. AIRPORT   CLEAR     64  62  93 E8        29.87R
N.P. DOWNTOWN    N/A     66  62  88 CALM        N/A
N.P. SOUTHEAST   N/A     65  62  89 CALM        N/A
N.P. HILLCREST   N/A     66  63  89 SE7         N/A
$$

...SOME OBSERVATIONS FROM AROUND THE REGION...

CITY           SKY/WX    TMP DP  RH WIND       PRES   REMARKS
DENVER         CLOUDY    67  40  37 SW12      30.06F
LIMON          CLOUDY    52  49  89 N7        30.07S
ASPEN          CLOUDY    50  34  54 SW8       30.30S
LARAMIE        CLOUDY    47  30  51 SE9       30.22R
CASPER         CLEAR     49  36  61 NW6       30.10R
CHEYENNE       CLOUDY    58  34  40 W8        30.11F
SCOTTSBLUFF    CLEAR     59  46  62 N7        29.96R
GRAND ISLAND   CLEAR     65  62  90 SE12      29.89R
OMAHA          CLOUDY    70  66  87 S13       29.88F
SIOUX FALLS    CLOUDY    70  63  78 W3        29.86R
PIERRE         CLOUDY    68  55  63 NE17      29.90F
RAPID CITY     CLEAR     61  49  64 N13       30.02R
BISMARCK       MOCLDY    60  49  66 NW6       29.99R
KANSAS CITY    TSTM      73  65  75 N18G30    29.97R
HILL CITY      CLEAR     71  65  81 SW8       29.87F
WICHITA        PTCLDY    75  70  84 SE10      29.94R
DODGE CITY     CLEAR     71  65  81 S9        29.94F
OKLAHOMA CITY  PTCLDY    71  69  93 SE6       29.96R
DALLAS         PTCLDY    84  70  62 S12       29.93S
AMARILLO       CLEAR     69  64  84 SW14      30.06F
$$




USA.gov is the U.S. government's official web portal to all federal, state and local government web resources and services.